Hourly Data Report for August 02, 2018

TORONTO CITY
ONTARIO
Current Station Operator: ECCC - MSC

43°40'00.000" N
79°24'00.000" W
112.50 m
6158355
71508
XTO

Download Data

Hourly Data (August 2018)
Hourly Data Report for August 2, 2018
TIME
LST
Temp Definition
°C
Dew Point Definition
°C
Rel Hum Definition
%
Precip. Amount Definition
mm

Wind Dir Definition
10's deg

Wind Spd Definition
km/h
Visibility Definition
km
Stn Press Definition
kPa
Hmdx Definition


Wind Chill Definition


Weather Definition


00:00 22.3 16.6 70 0.0 LegendMM LegendMM   100.11 27   LegendNANA
01:00 21.4 17.3 78 0.0 LegendMM LegendMM   100.12 27   LegendNANA
02:00 21.4 17.4 78 0.0 LegendMM LegendMM   100.14 27   LegendNANA
03:00 21.0 17.4 80 0.0 LegendMM LegendMM   100.15 27   LegendNANA
04:00 20.8 17.6 82 0.0 LegendMM LegendMM   100.18 27   LegendNANA
05:00 20.3 16.8 80 0.0 LegendMM LegendMM   100.19 25   LegendNANA
06:00 20.6 17.2 81 0.0 LegendMM LegendMM   100.28 26   LegendNANA
07:00 21.2 17.3 78 0.0 LegendMM LegendMM   100.33 27   LegendNANA
08:00 22.6 17.1 71 0.0 LegendMM LegendMM   100.35 28   LegendNANA
09:00 23.7 16.1 62 0.0 LegendMM LegendMM   100.36 28   LegendNANA
10:00 24.9 16.3 59 0.0 LegendMM LegendMM   100.36 30   LegendNANA
11:00 25.4 15.2 53 0.0 LegendMM LegendMM   100.37 29   LegendNANA
12:00 26.7 16.1 52 0.0 LegendMM LegendMM   100.37 31   LegendNANA
13:00 26.3 17.0 57 0.0 LegendMM LegendMM   100.36 32   LegendNANA
14:00 27.5 15.6 48 0.0 LegendMM LegendMM   100.32 32   LegendNANA
15:00 28.0 14.9 45 0.0 LegendMM LegendMM   100.29 32   LegendNANA
16:00 26.7 17.8 58 0.0 LegendMM LegendMM   100.27 33   LegendNANA
17:00 26.0 17.2 58 0.0 LegendMM LegendMM   100.27 31   LegendNANA
18:00 25.8 17.0 58 0.0 LegendMM LegendMM   100.24 31   LegendNANA
19:00 25.3 16.9 60 0.0 LegendMM LegendMM   100.28 31   LegendNANA
20:00 24.5 17.3 65 0.0 LegendMM LegendMM   100.33 30   LegendNANA
21:00 23.8 17.9 70 0.0 LegendMM LegendMM   100.37 30   LegendNANA
22:00 23.6 17.6 69 0.0 LegendMM LegendMM   100.39 29   LegendNANA
23:00 23.0 17.3 70 0.0 LegendMM LegendMM   100.42 28   LegendNANA

Notes on Data Quality.

Legend

  • E = Estimated
  • M = Missing
  • NA = Not Available*
  • [empty] = Indicates an unobserved value
Date modified: